NOAA 19 (33591 NORAD) Tracking and Keplerian Element Data

This shows tracking and keplerian element data for the satellite.

Feedback or suggestion? Click here.




ElementValue
Catalog33591
NameNOAA 19
Epoch Orbit71057
Epoch Day325.16728319
Epoch Year2022
RAAN2.4724
Inclination99.1307
Eccentricity0.0014804
Argument of Perigee107.2238
Mean Anonmoly253.0554
Mean Motion14.12640504
Decay Rate1.74E-06
L11 33591U 09005A 22325.16728319 .00000174 00000+0 11882-3 0 9990
L22 33591 99.1307 2.4724 0014804 107.2238 253.0554 14.12640504710572



Live tracking and technical data element details for NOAA 19 (NORAD 33591). NOAA 19 can be tracked NOW for your location showing map with azimuth and elevation plus other details from your city location.







IsCatalogInMostPopularTable: catalog: 33591, numindb: 1474
Update: records affected: 1



GetName: 33591 NOAA 19

Hit Count: updated at: Sun, 04 Dec 2022 22:58:49 GMT